| time (UTC) | temp F | wind direction | speed MPH | gust MPH | rain 1hr in | rain 24hr in | rain mn in | humidity % | barometer mb |
| 20260906190055 | 99 | 120 | 8.0 | 15.0 | 0.00 | 0.00 | 0.00 | 42 | 1011.2 |
| 20260906184552 | 98 | 171 | 5.0 | 15.0 | 0.00 | 0.00 | 0.00 | 44 | 1011.4 |
| 20260906183049 | 97 | 126 | 10.0 | 14.0 | 0.00 | 0.00 | 0.00 | 43 | 1011.8 |
| 20260906181615 | 95 | 113 | 4.0 | 12.0 | 0.00 | 0.00 | 0.00 | 46 | 1012.0 |
| 20260906180047 | 96 | 136 | 9.0 | 14.0 | 0.00 | 0.00 | 0.00 | 46 | 1012.3 |
| 20260906174550 | 96 | 84 | 10.0 | 16.0 | 0.00 | 0.00 | 0.00 | 45 | 1012.5 |
| 20260906173045 | 96 | 134 | 7.0 | 14.0 | 0.00 | 0.00 | 0.00 | 46 | 1012.5 |
| 20260906171554 | 95 | 135 | 10.0 | 15.0 | 0.00 | 0.00 | 0.00 | 48 | 1012.6 |
| 20260906170045 | 94 | 144 | 6.0 | 12.0 | 0.00 | 0.00 | 0.00 | 51 | 1012.8 |
| 20260906164542 | 94 | 211 | 1.0 | 6.0 | 0.00 | 0.00 | 0.00 | 50 | 1012.9 |
| 20260906163033 | 92 | 71 | 4.0 | 17.0 | 0.00 | 0.00 | 0.00 | 52 | 1013.1 |
| 20260906161532 | 92 | 79 | 5.0 | 10.0 | 0.00 | 0.00 | 0.00 | 51 | 1013.0 |
| 20260906160030 | 92 | 106 | 5.0 | 9.0 | 0.00 | 0.00 | 0.00 | 54 | 1012.9 |
| 20260906154538 | 90 | 48 | 3.0 | 5.0 | 0.00 | 0.00 | 0.00 | 57 | 1012.8 |
| 20260906153026 | 90 | 98 | 4.0 | 11.0 | 0.00 | 0.00 | 0.00 | 56 | 1012.8 |
| 20260906151524 | 89 | 123 | 2.0 | 5.0 | 0.00 | 0.00 | 0.00 | 59 | 1012.7 |
| 20260906150024 | 88 | 76 | 2.0 | 5.0 | 0.00 | 0.00 | 0.00 | 61 | 1012.7 |
| 20260906144523 | 87 | 338 | 0.0 | 2.0 | 0.00 | 0.00 | 0.00 | 65 | 1012.7 |
| 20260906143020 | 86 | 338 | 0.0 | 3.0 | 0.00 | 0.00 | 0.00 | 67 | 1012.6 |
| 20260906141512 | 84 | 39 | 1.0 | 2.0 | 0.00 | 0.00 | 0.00 | 73 | 1012.9 |
| 20260906140009 | 82 | 52 | 0.0 | 2.0 | 0.00 | 0.00 | 0.00 | 78 | 1013.0 |
| 20260906134506 | 80 | 149 | 0.0 | 0.0 | 0.00 | 0.00 | 0.00 | 83 | 1013.1 |
| 20260906133005 | 79 | 149 | 0.0 | 0.0 | 0.00 | 0.00 | 0.00 | 84 | 1013.0 |
| 20260906131509 | 78 | 149 | 0.0 | 0.0 | 0.00 | 0.00 | 0.00 | 86 | 1013.1 |
| 20260906130002 | 76 | 149 | 0.0 | 0.0 | 0.00 | 0.00 | 0.00 | 89 | 1012.9 |
| 20260906124501 | 74 | 149 | 0.0 | 0.0 | 0.00 | 0.00 | 0.00 | 90 | 1012.7 |
| 20260906123200 | 74 | 149 | 0.0 | 0.0 | 0.00 | 0.00 | 0.00 | 91 | 1012.7 |
| 20260906121558 | 73 | 149 | 0.0 | 0.0 | 0.00 | 0.00 | 0.00 | 91 | 1012.4 |
| 20260906120057 | 74 | 149 | 0.0 | 0.0 | 0.00 | 0.00 | 0.00 | 91 | 1012.4 |
| 20260906114600 | 74 | 149 | 0.0 | 2.0 | 0.00 | 0.00 | 0.00 | 90 | 1012.3 |
| 20260906113054 | 74 | 149 | 0.0 | 0.0 | 0.00 | 0.00 | 0.00 | 90 | 1012.0 |
| 20260906111554 | 74 | 149 | 0.0 | 1.0 | 0.00 | 0.00 | 0.00 | 90 | 1012.0 |
| 20260906110052 | 74 | 149 | 0.0 | 2.0 | 0.00 | 0.00 | 0.00 | 89 | 1011.9 |
| 20260906104557 | 74 | 149 | 0.0 | 0.0 | 0.00 | 0.00 | 0.00 | 89 | 1011.7 |
| 20260906103048 | 74 | 149 | 0.0 | 2.0 | 0.00 | 0.00 | 0.00 | 88 | 1011.6 |
| 20260906101548 | 74 | 149 | 0.0 | 0.0 | 0.00 | 0.00 | 0.00 | 88 | 1011.5 |
| 20260906100046 | 75 | 149 | 0.0 | 0.0 | 0.00 | 0.00 | 0.00 | 87 | 1011.4 |
| 20260906094600 | 75 | 149 | 0.0 | 0.0 | 0.00 | 0.00 | 0.00 | 87 | 1011.4 |
| 20260906093105 | 75 | 149 | 0.0 | 0.0 | 0.00 | 0.00 | 0.00 | 86 | 1011.4 |
| 20260906091542 | 76 | 149 | 0.0 | 0.0 | 0.00 | 0.00 | 0.00 | 86 | 1011.3 |
| 20260906090041 | 76 | 149 | 0.0 | 2.0 | 0.00 | 0.00 | 0.00 | 85 | 1011.2 |
| 20260906084540 | 76 | 153 | 1.0 | 4.0 | 0.00 | 0.00 | 0.00 | 85 | 1011.2 |
| 20260906083046 | 76 | 145 | 2.0 | 4.0 | 0.00 | 0.00 | 0.00 | 84 | 1011.0 |
| 20260906081540 | 76 | 161 | 0.0 | 2.0 | 0.00 | 0.00 | 0.00 | 83 | 1011.1 |
| 20260906080041 | 77 | 162 | 0.0 | 0.0 | 0.00 | 0.00 | 0.00 | 83 | 1011.0 |
| 20260906074535 | 77 | 194 | 0.0 | 0.0 | 0.00 | 0.00 | 0.00 | 81 | 1010.9 |
| 20260906073032 | 77 | 194 | 0.0 | 0.0 | 0.00 | 0.00 | 0.00 | 81 | 1011.0 |
| 20260906071530 | 78 | 194 | 0.0 | 5.0 | 0.00 | 0.00 | 0.00 | 80 | 1011.1 |
| 20260906070029 | 78 | 171 | 2.0 | 4.0 | 0.00 | 0.00 | 0.00 | 80 | 1011.2 |
| 20260906064527 | 78 | 170 | 1.0 | 3.0 | 0.00 | 0.00 | 0.00 | 79 | 1011.3 |
| 20260906063026 | 78 | 156 | 2.0 | 8.0 | 0.00 | 0.00 | 0.00 | 78 | 1011.4 |
| 20260906061528 | 79 | 147 | 3.0 | 8.0 | 0.00 | 0.00 | 0.00 | 77 | 1011.3 |
| 20260906060023 | 79 | 141 | 2.0 | 5.0 | 0.00 | 0.00 | 0.00 | 76 | 1011.4 |
| 20260906054522 | 79 | 168 | 1.0 | 3.0 | 0.00 | 0.00 | 0.00 | 75 | 1011.3 |
| 20260906053021 | 79 | 138 | 3.0 | 4.0 | 0.00 | 0.00 | 0.00 | 75 | 1011.4 |
| 20260906051518 | 80 | 160 | 0.0 | 2.0 | 0.00 | 0.00 | 0.00 | 73 | 1011.3 |
| 20260906050015 | 81 | 204 | 1.0 | 2.0 | 0.00 | 0.00 | 0.00 | 72 | 1011.2 |
| 20260906044515 | 81 | 204 | 1.0 | 3.0 | 0.00 | 0.00 | 0.00 | 71 | 1011.3 |
| 20260906043014 | 81 | 207 | 2.0 | 5.0 | 0.00 | 0.00 | 0.00 | 71 | 1011.4 |
| 20260906041514 | 81 | 154 | 3.0 | 5.0 | 0.00 | 0.00 | 0.00 | 71 | 1011.4 |
| 20260906040020 | 82 | 157 | 1.0 | 3.0 | 0.00 | 0.00 | 0.00 | 71 | 1011.2 |
| 20260906034513 | 82 | 167 | 1.0 | 5.0 | 0.00 | 0.00 | 0.00 | 70 | 1011.2 |
| 20260906033012 | 83 | 177 | 0.0 | 2.0 | 0.00 | 0.00 | 0.00 | 69 | 1011.3 |
| 20260906031512 | 83 | 168 | 0.0 | 0.0 | 0.00 | 0.00 | 0.00 | 68 | 1011.2 |
| 20260906030012 | 84 | 153 | 2.0 | 5.0 | 0.00 | 0.00 | 0.00 | 67 | 1011.3 |
| 20260906024530 | 84 | 159 | 4.0 | 7.0 | 0.00 | 0.00 | 0.00 | 67 | 1011.2 |
| 20260906023015 | 85 | 155 | 3.0 | 7.0 | 0.00 | 0.00 | 0.00 | 67 | 1010.8 |
| 20260906021511 | 85 | 156 | 3.0 | 7.0 | 0.00 | 0.00 | 0.00 | 66 | 1010.6 |
| 20260906020010 | 86 | 165 | 3.0 | 6.0 | 0.00 | 0.00 | 0.00 | 64 | 1010.2 |
| 20260906014511 | 86 | 160 | 5.0 | 10.0 | 0.00 | 0.00 | 0.00 | 62 | 1010.1 |
| 20260906013027 | 87 | 156 | 6.0 | 12.0 | 0.00 | 0.00 | 0.00 | 62 | 1010.1 |
| 20260906011509 | 87 | 167 | 7.0 | 12.0 | 0.00 | 0.00 | 0.00 | 61 | 1010.0 |
| 20260906010008 | 88 | 144 | 9.0 | 18.0 | 0.00 | 0.00 | 0.00 | 59 | 1009.8 |
| 20260906004508 | 90 | 107 | 9.0 | 20.0 | 0.00 | 0.00 | 0.00 | 53 | 1009.5 |
| 20260906003006 | 95 | 153 | 4.0 | 8.0 | 0.00 | 0.00 | 0.00 | 44 | 1009.1 |
| 20260906001505 | 96 | 144 | 2.0 | 8.0 | 0.00 | 0.00 | 0.00 | 42 | 1009.2 |
| 20260906000005 | 97 | 153 | 2.0 | 10.0 | 0.00 | 0.00 | 0.00 | 41 | 1009.1 |
| 20260905234506 | 98 | 115 | 5.0 | 10.0 | 0.00 | 0.00 | 0.00 | 41 | 1009.0 |
| 20260905233005 | 98 | 128 | 2.0 | 9.0 | 0.00 | 0.00 | 0.00 | 40 | 1009.0 |
| 20260905231504 | 97 | 100 | 2.0 | 8.0 | 0.00 | 0.00 | 0.00 | 41 | 1009.0 |
| 20260905230004 | 97 | 155 | 0.0 | 2.0 | 0.00 | 0.00 | 0.00 | 41 | 1009.1 |
| 20260905224502 | 97 | 69 | 1.0 | 8.0 | 0.00 | 0.00 | 0.00 | 40 | 1009.0 |
| 20260905223002 | 97 | 60 | 4.0 | 6.0 | 0.00 | 0.00 | 0.00 | 41 | 1009.0 |
| 20260905221615 | 97 | 107 | 0.0 | 3.0 | 0.00 | 0.00 | 0.00 | 41 | 1009.1 |
| 20260905220059 | 98 | 107 | 6.0 | 10.0 | 0.00 | 0.00 | 0.00 | 40 | 1009.2 |
| 20260905214601 | 99 | 113 | 1.0 | 7.0 | 0.00 | 0.00 | 0.00 | 40 | 1009.3 |
| 20260905213104 | 98 | 147 | 4.0 | 11.0 | 0.00 | 0.00 | 0.00 | 40 | 1009.4 |
| 20260905211600 | 99 | 158 | 3.0 | 9.0 | 0.00 | 0.00 | 0.00 | 39 | 1009.4 |
| 20260905210058 | 98 | 206 | 1.0 | 3.0 | 0.00 | 0.00 | 0.00 | 41 | 1009.7 |
| 20260905204554 | 98 | 65 | 5.0 | 14.0 | 0.00 | 0.00 | 0.00 | 40 | 1009.9 |
| 20260905203054 | 98 | 221 | 3.0 | 12.0 | 0.00 | 0.00 | 0.00 | 41 | 1010.0 |
| 20260905201607 | 97 | 104 | 6.0 | 14.0 | 0.00 | 0.00 | 0.00 | 42 | 1010.2 |
| 20260905200048 | 98 | 122 | 5.0 | 9.0 | 0.00 | 0.00 | 0.00 | 40 | 1010.5 |
| 20260905194544 | 97 | 165 | 0.0 | 9.0 | 0.00 | 0.00 | 0.00 | 43 | 1010.7 |
| 20260905193047 | 96 | 209 | 0.0 | 14.0 | 0.00 | 0.00 | 0.00 | 44 | 1010.9 |